CW0506 Weather Reports


Display with metric or nautical units.
time (UTC)temp
F
wind
direction
speed
MPH
gust
MPH
rain 1hr
in
rain 24hr
in
rain mn
in
humidity
%
barometer
mb
20260502204538 57 294 2.0 5.0 0.00 0.18 0.18 55 1010.7
20260502204036 57 357 1.0 7.0 0.00 0.18 0.18 53 1010.8
20260502203533 57 26 7.0 8.0 0.00 0.18 0.18 51 1010.9
20260502203030 57 22 3.0 4.0 0.00 0.18 0.18 54 1010.9
20260502202526 57 68 1.0 5.0 0.00 0.18 0.18 56 1010.9
20260502202025 56 224 2.0 5.0 0.00 0.18 0.18 56 1011.0
20260502201520 58 42 5.0 8.0 0.00 0.18 0.18 52 1011.4
20260502201017 57 282 1.0 4.0 0.00 0.18 0.18 56 1011.2
20260502200513 58 123 0.0 5.0 0.00 0.18 0.18 52 1011.2
20260502200011 59 100 2.0 4.0 0.00 0.18 0.18 54 1011.3
20260502195508 57 88 3.0 6.0 0.00 0.18 0.18 52 1011.3
20260502195004 56 141 2.0 9.0 0.00 0.18 0.18 57 1011.4
20260502194501 55 303 1.0 8.0 0.00 0.18 0.18 60 1011.7
20260502193956 57 124 3.0 10.0 0.00 0.18 0.18 59 1011.8
20260502193455 57 93 4.0 6.0 0.00 0.18 0.18 55 1011.8
20260502192950 56 93 1.0 5.0 0.00 0.18 0.18 60 1011.9
20260502192447 57 128 2.0 5.0 0.00 0.18 0.18 57 1011.9
20260502191943 56 317 2.0 3.0 0.00 0.18 0.18 58 1011.9
20260502191441 54 44 1.0 3.0 0.00 0.18 0.18 62 1012.0
20260502190939 55 337 3.0 6.0 0.00 0.18 0.18 61 1012.2
20260502190436 56 109 1.0 13.0 0.00 0.18 0.18 59 1012.2
20260502185932 57 105 2.0 5.0 0.00 0.18 0.18 63 1012.0
20260502185428 55 299 5.0 9.0 0.00 0.18 0.18 62 1012.4
20260502184925 56 227 4.0 11.0 0.00 0.18 0.18 62 1012.2
20260502184420 55 8 2.0 6.0 0.00 0.18 0.18 66 1012.4
20260502183917 55 15 3.0 8.0 0.00 0.18 0.18 66 1012.5
20260502183413 54 208 2.0 6.0 0.00 0.18 0.18 69 1012.3
20260502182909 53 22 4.0 7.0 0.00 0.18 0.18 67 1012.5
20260502182404 53 287 4.0 5.0 0.00 0.18 0.18 72 1012.5
20260502181901 54 125 4.0 11.0 0.00 0.18 0.18 70 1012.4
20260502181359 53 120 3.0 7.0 0.00 0.18 0.18 73 1012.5
20260502180857 53 228 1.0 6.0 0.00 0.18 0.18 75 1012.4
20260502180354 52 69 4.0 7.0 0.00 0.18 0.18 73 1012.4
20260502170307 50 32 5.0 7.0 0.00 0.17 0.17 86 1012.6
20260502164255 48 68 1.0 7.0 0.02 0.17 0.17 94 1012.5
20260502163750 48 52 2.0 9.0 0.05 0.17 0.17 94 1012.8
20260502163247 48 77 0.0 4.0 0.07 0.17 0.17 95 1012.8
20260502162744 48 126 3.0 12.0 0.07 0.16 0.16 95 1013.0
20260502162241 49 37 1.0 3.0 0.05 0.15 0.15 95 1012.9
20260502161738 49 156 3.0 4.0 0.05 0.15 0.15 95 1012.7
20260502161234 48 100 2.0 4.0 0.05 0.15 0.15 94 1012.8
20260502160732 49 104 0.0 4.0 0.05 0.14 0.14 93 1012.8
20260502160231 50 102 4.0 10.0 0.05 0.14 0.14 91 1012.8
20260502152155 54 119 1.0 3.0 0.00 0.12 0.12 78 1012.7
20260502151652 53 270 3.0 7.0 0.00 0.12 0.12 81 1012.7
20260502151150 52 338 0.0 3.0 0.00 0.12 0.12 81 1012.9
20260502150647 52 332 3.0 3.0 0.00 0.12 0.12 83 1012.8
20260502150143 52 246 0.0 2.0 0.00 0.12 0.12 86 1012.7
20260502140107 51 303 3.0 5.0 0.00 0.12 0.12 87 1012.8
20260502130532 51 259 1.0 4.0 0.00 0.12 0.12 92 1013.0
20260502123515 48 189 0.0 3.0 0.00 0.12 0.12 99 1013.4
20260502123011 48 304 2.0 4.0 0.00 0.12 0.12 99 1013.5
20260502122508 48 336 3.0 5.0 0.00 0.12 0.12 99 1013.2
20260502122006 48 247 1.0 2.0 0.00 0.12 0.12 99 1013.3
20260502121503 48 162 1.0 3.0 0.00 0.12 0.12 99 1013.4
20260502121000 48 263 2.0 5.0 0.00 0.12 0.12 99 1013.6
20260502120456 48 248 3.0 3.0 0.00 0.12 0.12 99 1013.5
20260502115451 48 215 2.0 2.0 0.00 0.12 0.12 99 1013.3
20260502114947 48 229 0.0 3.0 0.00 0.12 0.12 99 1013.4
20260502114444 48 24 1.0 2.0 0.00 0.12 0.12 99 1013.3
20260502113941 48 132 0.0 3.0 0.00 0.12 0.12 99 1013.1
20260502113438 47 227 0.0 2.0 0.00 0.12 0.12 99 1013.2
20260502112937 47 144 0.0 2.0 0.00 0.12 0.12 99 1013.2
20260502112434 47 148 2.0 2.0 0.00 0.12 0.12 99 1013.3
20260502111931 47 158 0.0 2.0 0.00 0.12 0.12 99 1013.3
20260502111428 47 173 1.0 2.0 0.00 0.12 0.12 99 1013.4
20260502110926 47 186 2.0 3.0 0.00 0.12 0.12 99 1013.3
20260502110424 47 277 0.0 2.0 0.00 0.12 0.12 99 1013.7
20260502105920 47 232 1.0 3.0 0.07 0.12 0.12 99 1013.5
20260502105417 47 148 2.0 2.0 0.17 0.12 0.12 99 1013.5
20260502104916 47 111 0.0 2.0 0.17 0.11 0.11 99 1013.6
20260502104413 47 170 2.0 3.0 0.17 0.09 0.09 99 1013.6
20260502103910 47 274 0.0 2.0 0.19 0.08 0.08 99 1013.8
20260502103408 47 186 0.0 2.0 0.09 0.06 0.06 99 1013.4
20260502102904 47 98 0.0 2.0 0.02 0.05 0.05 99 1013.3
20260502102401 47 3 1.0 3.0 0.02 0.05 0.05 99 1013.4
20260502101858 47 280 1.0 2.0 0.00 0.04 0.04 99 1012.9
20260502101356 46 270 0.0 2.0 0.00 0.04 0.04 99 1012.7
20260502100854 47 113 0.0 2.0 0.00 0.04 0.04 99 1013.0
20260502100353 47 189 0.0 3.0 0.00 0.04 0.04 99 1013.0
20260502091327 47 348 0.0 2.0 0.00 0.02 0.02 99 1012.7
20260502090825 47 119 0.0 1.0 0.02 0.02 0.02 99 1012.7
20260502090321 47 231 1.0 3.0 0.02 0.02 0.02 99 1012.9
20260502071216 48 248 2.0 3.0 0.00 0.00 0.00 92 1012.5
20260502070715 48 238 2.0 3.0 0.00 0.00 0.00 91 1012.4
20260502070212 49 258 2.0 3.0 0.00 0.00 0.00 91 1012.4
20260502065710 49 148 0.0 2.0 0.00 0.00 0.00 90 1012.5
20260502065208 49 138 0.0 2.0 0.00 0.00 0.00 90 1012.7
20260502064706 49 137 0.0 2.0 0.00 0.00 0.00 90 1012.6
20260502064203 49 155 0.0 1.0 0.00 0.00 0.00 89 1012.7
20260502063701 49 312 0.0 2.0 0.00 0.00 0.00 89 1012.9
20260502063159 49 261 2.0 3.0 0.00 0.00 0.00 89 1012.6
20260502062655 49 149 1.0 3.0 0.00 0.00 0.00 89 1012.6
20260502062153 49 125 2.0 2.0 0.00 0.00 0.00 90 1012.7
20260502061651 49 109 0.0 1.0 0.00 0.00 0.00 90 1013.0
20260502061148 49 217 0.0 2.0 0.00 0.00 0.00 90 1012.9
20260502060649 49 268 0.0 1.0 0.00 0.00 0.00 90 1012.8
20260502060146 49 137 0.0 2.0 0.00 0.00 0.00 89 1012.6
20260502055643 49 173 0.0 2.0 0.00 0.00 0.00 89 1012.8
20260502055141 49 155 0.0 1.0 0.00 0.00 0.00 89 1012.9
20260502054640 49 137 0.0 1.0 0.00 0.00 0.00 89 1012.7
20260502054137 49 189 0.0 1.0 0.00 0.00 0.00 88 1012.6
20260502053634 49 317 0.0 1.0 0.00 0.00 0.00 88 1012.8
20260502053131 49 242 0.0 1.0 0.00 0.00 0.00 87 1012.5
20260502052629 49 204 0.0 1.0 0.00 0.00 0.00 87 1012.7
20260502052127 50 181 2.0 2.0 0.00 0.00 0.00 87 1012.8
20260502051625 50 203 2.0 3.0 0.00 0.00 0.00 87 1012.8
20260502051123 50 229 1.0 2.0 0.00 0.00 0.00 86 1012.9
20260502050619 50 132 0.0 2.0 0.00 0.00 0.00 85 1012.7
20260502050116 50 125 1.0 2.0 0.00 0.00 0.00 85 1013.0
20260502045612 50 136 0.0 2.0 0.00 0.00 0.00 85 1013.0
20260502045110 50 131 1.0 2.0 0.00 0.00 0.00 84 1013.1
20260502044606 50 142 1.0 2.0 0.00 0.00 0.00 84 1013.0
20260502044103 50 144 1.0 1.0 0.00 0.00 0.00 83 1013.0
20260502043600 50 149 0.0 1.0 0.00 0.00 0.00 82 1013.0
20260502043056 50 131 1.0 2.0 0.00 0.00 0.00 81 1012.9
20260502042551 49 242 0.0 0.0 0.00 0.00 0.00 81 1012.9
20260502042049 49 144 0.0 2.0 0.00 0.00 0.00 81 1013.0
20260502041547 49 150 0.0 2.0 0.00 0.00 0.00 81 1013.0
20260502041043 49 184 0.0 2.0 0.00 0.00 0.00 81 1013.0
20260502040540 49 106 0.0 2.0 0.00 0.00 0.00 80 1012.7
20260502040037 50 240 1.0 3.0 0.00 0.00 0.00 80 1012.8
20260502035533 50 175 0.0 0.0 0.00 0.03 0.03 80 1012.9
20260502035031 50 199 0.0 2.0 0.00 0.03 0.03 80 1012.9
20260502034528 50 172 0.0 2.0 0.00 0.03 0.03 79 1012.9
20260502034027 50 148 0.0 1.0 0.00 0.03 0.03 79 1012.8
20260502033525 50 142 0.0 2.0 0.00 0.03 0.03 79 1012.9
20260502033022 50 168 0.0 2.0 0.00 0.03 0.03 79 1012.8
20260502032517 50 152 1.0 2.0 0.00 0.03 0.03 79 1012.8
20260502032014 50 133 0.0 2.0 0.00 0.03 0.03 78 1013.0
20260502031512 50 137 0.0 2.0 0.00 0.03 0.03 78 1013.0
20260502031010 50 150 0.0 2.0 0.00 0.03 0.03 78 1013.0
20260502030508 50 148 2.0 3.0 0.00 0.03 0.03 78 1013.1
20260502030006 50 101 1.0 2.0 0.00 0.03 0.03 77 1013.2
20260502025503 50 151 1.0 2.0 0.00 0.03 0.03 77 1013.0
20260502025001 50 147 0.0 2.0 0.00 0.03 0.03 76 1013.1
20260502024458 50 147 1.0 2.0 0.00 0.03 0.03 77 1013.1
20260502023956 50 175 1.0 2.0 0.00 0.03 0.03 76 1013.0
20260502023454 50 204 1.0 2.0 0.00 0.03 0.03 75 1012.8
20260502022951 51 160 0.0 2.0 0.00 0.03 0.03 74 1012.9
20260502022447 51 139 0.0 2.0 0.00 0.03 0.03 73 1012.9
20260502021944 51 153 1.0 2.0 0.00 0.03 0.03 73 1012.9
20260502021442 51 131 0.0 2.0 0.00 0.03 0.03 72 1012.8
20260502020939 52 179 2.0 2.0 0.00 0.03 0.03 72 1013.0
20260502020437 52 189 0.0 2.0 0.00 0.03 0.03 71 1013.1
20260502015933 52 164 1.0 3.0 0.00 0.03 0.03 71 1013.0
20260502015431 52 135 1.0 1.0 0.00 0.03 0.03 71 1013.1
20260502014927 52 136 1.0 2.0 0.00 0.03 0.03 72 1012.9
20260502014424 52 134 1.0 2.0 0.00 0.03 0.03 71 1013.0
20260502013921 53 166 1.0 2.0 0.00 0.03 0.03 71 1012.7
20260502013416 53 225 2.0 3.0 0.00 0.03 0.03 70 1012.9
20260502012913 53 114 1.0 3.0 0.00 0.03 0.03 70 1012.8
20260502012411 53 102 2.0 3.0 0.00 0.03 0.03 70 1012.5
20260502011908 53 141 1.0 3.0 0.00 0.03 0.03 69 1012.6
20260502011404 53 199 1.0 2.0 0.00 0.03 0.03 68 1012.3
20260502010901 53 49 0.0 1.0 0.00 0.03 0.03 67 1012.5
20260502010358 53 222 3.0 3.0 0.00 0.03 0.03 65 1012.4
20260502005854 53 259 0.0 2.0 0.00 0.03 0.03 65 1012.3
20260502005352 54 213 1.0 2.0 0.00 0.03 0.03 64 1012.3
20260502004850 54 226 3.0 4.0 0.00 0.03 0.03 63 1012.2
20260502004345 54 231 2.0 4.0 0.00 0.03 0.03 65 1012.2
20260502003843 54 189 0.0 1.0 0.00 0.03 0.03 63 1012.1
20260502003340 55 149 0.0 2.0 0.00 0.03 0.03 64 1011.9
20260502002837 55 136 1.0 2.0 0.00 0.03 0.03 63 1011.8
20260502002334 55 161 1.0 2.0 0.00 0.03 0.03 64 1011.7
20260502001831 55 146 1.0 2.0 0.00 0.03 0.03 62 1011.7
20260502001329 55 146 1.0 2.0 0.00 0.03 0.03 60 1011.8
20260502000826 55 134 0.0 1.0 0.00 0.03 0.03 59 1011.6
20260502000325 56 132 0.0 2.0 0.00 0.03 0.03 59 1011.6
20260501235820 56 156 1.0 1.0 0.00 0.03 0.03 60 1011.6
20260501235316 56 162 0.0 1.0 0.00 0.03 0.03 60 1011.5
20260501234811 57 142 0.0 1.0 0.00 0.03 0.03 59 1011.5
20260501234309 57 134 0.0 2.0 0.00 0.03 0.03 59 1011.2
20260501233807 57 163 0.0 2.0 0.00 0.03 0.03 58 1011.2
20260501233304 57 175 0.0 1.0 0.00 0.03 0.03 57 1011.2
20260501232759 58 162 0.0 1.0 0.00 0.03 0.03 51 1011.3
20260501232257 58 159 0.0 1.0 0.00 0.03 0.03 50 1011.2
20260501231754 58 137 0.0 1.0 0.00 0.03 0.03 49 1011.2
20260501231253 59 137 0.0 1.0 0.00 0.03 0.03 47 1011.0
20260501230750 59 162 0.0 1.0 0.00 0.03 0.03 47 1010.7
20260501230249 59 329 0.0 1.0 0.00 0.03 0.03 47 1011.0
20260501225746 59 330 0.0 1.0 0.00 0.03 0.03 46 1010.8
20260501225243 60 209 1.0 2.0 0.00 0.03 0.03 47 1010.8
20260501224739 60 311 0.0 0.0 0.00 0.03 0.03 45 1010.8
20260501224237 61 242 0.0 1.0 0.00 0.03 0.03 42 1010.8
20260501223733 61 295 0.0 5.0 0.00 0.03 0.03 40 1010.7
20260501223230 62 288 0.0 4.0 0.00 0.03 0.03 42 1010.7
20260501222725 61 312 2.0 4.0 0.00 0.03 0.03 40 1010.5
20260501222223 61 229 0.0 2.0 0.00 0.03 0.03 41 1010.6
20260501221720 61 0 0.0 2.0 0.00 0.03 0.03 42 1010.8
20260501221217 61 11 2.0 5.0 0.00 0.03 0.03 40 1010.5
20260501220714 62 318 0.0 5.0 0.00 0.03 0.03 40 1010.6
20260501220212 62 265 2.0 6.0 0.00 0.03 0.03 38 1010.8
20260501215709 62 345 2.0 4.0 0.00 0.03 0.03 38 1010.8
20260501215204 62 251 3.0 6.0 0.00 0.03 0.03 38 1010.6
20260501214659 62 341 1.0 5.0 0.00 0.03 0.03 40 1010.7
20260501214155 62 340 4.0 7.0 0.00 0.03 0.03 39 1010.7
20260501213652 62 70 1.0 7.0 0.00 0.03 0.03 39 1010.8
20260501213147 62 91 5.0 7.0 0.00 0.03 0.03 38 1010.6
20260501212644 61 312 5.0 9.0 0.00 0.03 0.03 38 1010.8
20260501212141 62 324 1.0 7.0 0.00 0.03 0.03 39 1010.7
20260501211638 63 337 2.0 7.0 0.00 0.03 0.03 38 1010.7
20260501211135 63 349 3.0 7.0 0.00 0.03 0.03 38 1010.8
20260501210632 63 20 6.0 11.0 0.00 0.03 0.03 35 1010.8
20260501210129 63 236 3.0 7.0 0.00 0.03 0.03 37 1010.5
20260501205625 62 276 5.0 8.0 0.00 0.03 0.03 41 1010.7
20260501205123 61 294 3.0 10.0 0.00 0.03 0.03 39 1010.6